Weather History for KLEE - February, 2013

Change the Weather History Date:

Sunday, February 17, 2013

  Actual Average Record
Temperature  
Mean Temperature 46 °F -  
Max Temperature 54 °F 72 °F 85 °F (1975)
Min Temperature 37 °F 50 °F 29 °F (1991)
Degree Days  
Heating Degree Days 20    
Moisture  
Dew Point 17 °F    
Average Humidity 35    
Maximum Humidity 67    
Minimum Humidity 17    
Precipitation  
Precipitation 0.00 in - - ()
Sea Level Pressure  
Sea Level Pressure 30.29 in    
Wind  
Wind Speed 10 mph (NNW)    
Max Wind Speed 16 mph    
Max Gust Speed 23 mph    
Visibility 10 miles    
Events      
Averages and records for this station are not official NWS values.
T = Trace of Precipitation, MM = Missing Value Source: NWS Daily Summary

Daily Weather History Graph

Daily Weather History Graph

Search for Another Location

Airport or City:

Trip Planner

Search our weather history database for the weather conditions in past years. The results will help you decide how hot, cold, wet, or windy it might be!

Date:

Astronomy

Feb. 17, 2013 Rise Set
Actual Time 7:03 AM EST 6:19 PM EST
Civil Twilight 6:39 AM EST 6:43 PM EST
Nautical Twilight 6:12 AM EST 7:10 PM EST
Astronomical Twilight 5:44 AM EST 7:38 PM EST
Moon 11:33 AM EST (2/17) 12:37 AM EST (2/17)
Length of Visible Light 12h 03m
Length of Day
11h 15m
Waxing Crescent, 49% of the Moon is Illuminated
Feb 17
Waxing Crescent
Feb 17
First Quarter
Feb 25
Full
Mar 4
Last Quarter
Mar 11
New

Hourly Weather History & Observations

Time (EST) Temp. Windchill Dew Point Humidity Pressure Visibility Wind Dir Wind Speed Gust Speed Precip Events Conditions
12:53 AM 46.0 °F 40.2 °F 19.0 °F 34% 30.19 in 10.0 mi NNW 12.7 mph 23.0 mph N/A   Clear
1:53 AM 45.0 °F 38.5 °F 18.0 °F 34% 30.20 in 10.0 mi NNW 13.8 mph 19.6 mph N/A   Clear
2:53 AM 43.0 °F 35.4 °F 18.0 °F 37% 30.20 in 10.0 mi NNW 16.1 mph 20.7 mph N/A   Clear
3:53 AM 41.0 °F 33.9 °F 19.0 °F 41% 30.21 in 10.0 mi North 12.7 mph 18.4 mph N/A   Clear
4:53 AM 39.0 °F 33.4 °F 21.0 °F 49% 30.23 in 10.0 mi North 8.1 mph - N/A   Clear
5:53 AM 39.0 °F 34.8 °F 21.0 °F 49% 30.26 in 10.0 mi NNW 5.8 mph - N/A   Clear
6:53 AM 37.9 °F 30.9 °F 21.0 °F 51% 30.29 in 10.0 mi North 10.4 mph - N/A   Clear
8:53 AM 42.1 °F 34.9 °F 16.0 °F 35% 30.33 in 10.0 mi North 13.8 mph - N/A   Clear
9:53 AM 45.0 °F 38.2 °F 15.1 °F 30% 30.35 in 10.0 mi NNW 15.0 mph 19.6 mph N/A   Clear
10:53 AM 46.0 °F 39.3 °F 14.0 °F 28% 30.35 in 10.0 mi NNW 16.1 mph - N/A   Clear
11:53 AM 48.0 °F - 12.9 °F 24% 30.35 in 10.0 mi NW 8.1 mph 17.3 mph N/A   Clear
12:53 PM 50.0 °F - 12.0 °F 22% 30.34 in 10.0 mi North 9.2 mph - N/A   Clear
1:53 PM 52.0 °F - 10.9 °F 19% 30.31 in 10.0 mi North 9.2 mph 16.1 mph N/A   Clear
2:53 PM 53.1 °F - 9.0 °F 17% 30.29 in 10.0 mi NNW 8.1 mph - N/A   Clear
3:53 PM 54.0 °F - 10.0 °F 17% 30.29 in 10.0 mi NNW 5.8 mph - N/A   Clear
4:53 PM 54.0 °F - 9.0 °F 17% 30.29 in 10.0 mi NNW 9.2 mph - N/A   Clear
5:53 PM 52.0 °F - 12.0 °F 20% 30.30 in 10.0 mi North 4.6 mph - N/A   Clear
6:53 PM 46.0 °F - 16.0 °F 30% 30.31 in 10.0 mi Calm Calm - N/A   Clear
7:53 PM 44.1 °F - 23.0 °F 43% 30.32 in 10.0 mi Calm Calm - N/A   Clear
8:53 PM 39.9 °F - 24.1 °F 53% 30.34 in 10.0 mi Calm Calm - N/A   Clear
9:53 PM 39.9 °F - 24.1 °F 53% 30.36 in 10.0 mi Calm Calm - N/A   Clear
10:53 PM 41.0 °F 38.0 °F 30.9 °F 67% 30.38 in 10.0 mi NNW 4.6 mph - N/A   Clear